Main page
METAR-TAF:

METAR-TAF

Airports :

RAF Spadeadam

Spadeadam, England

latitude: 55-03N, longitude: 002-33W, elevation: 325 m

Current weather observation

The report was made 1 hour and 0 minutes ago, at 19:50 UTC
Wind 11 kt from the West/Southwest
Temperature 12°C
Humidity 88%
Pressure 1000 hPa
Visibility 10 km or more

METAR: EGOM 281950Z AUTO 25011KT 9999 FEW045/// SCT100/// 12/10 Q1000

Time: 21:50 (20:50 UTC)


TAF: missing

Weather observations and forecasts of more than 4000 airports (METAR and TAF reports).

The available stations are represented by yellow and red dots on the map.

Hover mouse over dot to see the name of the station.

Then click to see weather observations and forecasts.

To change the map : click on the green buttons with a black cross to zoom in, on the green button with a dash to zoom out, or on the green arrows for adjacent maps.


METAR-TAF: